TimeCDT,TemperatureF,Dew PointF,Humidity,Sea Level PressureIn,VisibilityMPH,Wind Direction,Wind SpeedMPH,Gust SpeedMPH,PrecipitationIn,Events,Conditions,WindDirDegrees,DateUTC
12:53 AM,79.0,73.9,84,30.04,10.0,East,5.8,-,N/A,,Clear,80,2013-08-05 05:53:00
1:53 AM,78.1,73.9,87,30.03,10.0,East,3.5,-,N/A,,Clear,90,2013-08-05 06:53:00
2:53 AM,78.1,73.9,87,30.02,10.0,East,3.5,-,N/A,,Clear,100,2013-08-05 07:53:00
3:53 AM,77.0,73.9,90,30.01,10.0,East,3.5,-,N/A,,Clear,90,2013-08-05 08:53:00
4:53 AM,77.0,73.9,90,30.01,8.0,ESE,3.5,-,N/A,,Mostly Cloudy,110,2013-08-05 09:53:00
5:53 AM,75.9,73.9,94,30.01,7.0,Calm,Calm,-,N/A,,Mostly Cloudy,0,2013-08-05 10:53:00
6:53 AM,75.9,73.9,94,30.02,5.0,SE,3.5,-,N/A,,Partly Cloudy,140,2013-08-05 11:53:00
7:53 AM,78.1,73.9,87,30.01,9.0,SE,4.6,-,N/A,,Clear,130,2013-08-05 12:53:00
8:53 AM,84.0,73.9,72,30.01,10.0,South,6.9,-,N/A,,Clear,180,2013-08-05 13:53:00
9:53 AM,84.0,73.9,72,30.00,10.0,SW,5.8,-,N/A,,Clear,230,2013-08-05 14:53:00
10:53 AM,88.0,75.0,65,30.01,10.0,West,8.1,-,N/A,,Clear,260,2013-08-05 15:53:00
11:53 AM,91.0,75.0,59,29.99,10.0,WSW,10.4,-,N/A,,Clear,250,2013-08-05 16:53:00
12:53 PM,93.0,73.9,54,29.97,10.0,WSW,8.1,-,N/A,,Scattered Clouds,240,2013-08-05 17:53:00
1:53 PM,95.0,73.0,49,29.96,10.0,West,11.5,-,N/A,,Partly Cloudy,260,2013-08-05 18:53:00
2:53 PM,95.0,72.0,47,29.94,10.0,West,12.7,-,N/A,,Partly Cloudy,270,2013-08-05 19:53:00
3:53 PM,96.1,72.0,46,29.92,10.0,WSW,9.2,-,N/A,,Partly Cloudy,240,2013-08-05 20:53:00
4:53 PM,95.0,72.0,47,29.91,10.0,West,8.1,-,N/A,,Clear,280,2013-08-05 21:53:00
5:53 PM,93.0,75.0,56,29.90,10.0,WSW,4.6,-,N/A,,Partly Cloudy,240,2013-08-05 22:53:00
6:53 PM,91.9,75.9,59,29.89,10.0,SSE,5.8,-,N/A,,Partly Cloudy,160,2013-08-05 23:53:00
7:53 PM,87.1,75.0,67,29.91,10.0,NNE,6.9,-,N/A,,Overcast,30,2013-08-06 00:53:00
8:53 PM,84.0,75.0,74,29.91,10.0,Calm,Calm,-,N/A,,Clear,0,2013-08-06 01:53:00
9:19 PM,82.4,75.2,79,29.94,10.0,ESE,12.7,-,N/A,Thunderstorm,Clear,110,2013-08-06 02:19:00
9:53 PM,80.1,73.0,79,29.95,10.0,ESE,12.7,-,N/A,Thunderstorm,Clear,110,2013-08-06 02:53:00
10:02 PM,80.6,73.4,79,29.95,10.0,ESE,13.8,-,N/A,,Clear,120,2013-08-06 03:02:00
10:53 PM,79.0,73.0,82,29.92,10.0,SSE,4.6,-,N/A,,Clear,150,2013-08-06 03:53:00
11:53 PM,79.0,73.0,82,29.91,10.0,Calm,Calm,-,N/A,,Clear,0,2013-08-06 04:53:00